Location: ??
(35.5052°N, 139.7262°E)
Time: 18:28:11
(UTC+00:00)

Cosmos 2221 - Pass Details

Date: 20 June 2021
Orbit: 591 x 616 km, 82.5° (Epoch: 29 July)

Event Time Altitude Azimuth Distance (km) Brightness Sun altitude
Rises 16:31:46 0° 343° (NNW) 2,848 6.6 -25.7°
Reaches altitude 10° 16:34:07 10° 334° (NNW) 1,937 5.5 -25.4°
Enters shadow 16:36:35 27° 308° (NW) 1,145 3.9 -25.2°
